(100024) = 1990 SW6 = 1998 SJ14

Discovered at La Silla on 1990-09-22 by E. W. Elst.

Orbit

Orbit type: Main Belt

Note: WebGL enabled browser required.

epoch2023-09-13.0
epoch JD2460200.5
perihelion date2023-04-03.86484
perihelion JD2460038.36484
argument of perihelion (°)341.57771
ascending node (°)29.86261
inclination (°)7.96585
eccentricity0.2343777
perihelion distance (AU)1.9473393
Tisserand w.r.t. Jupiter3.4
ΔV w.r.t. Earth (km/sec)9.1
semimajor axis (AU)2.5434725
mean anomaly (°)39.39494
mean daily motion (°/day)0.24297590
aphelion distance (AU)3.140
period (years)4.06
P-vector [x]0.97861351
P-vector [y]0.20182673
P-vector [z]0.03976904
Q-vector [x]-0.19378888
Q-vector [y]0.83966927
Q-vector [z]0.50734740
absolute magnitude15.67
phase slope0.15
uncertainty0
referenceMPEC 2024-B43
observations used829
oppositions19
arc length (days)12178
first opposition used1990
last opposition used2024
residual rms (arc-secs)0.74
perturbers coarse indicatorM-v
perturbers precise indicator003Ek
first observation date used1990-09-15.0
last observation date used2024-01-18.0
computer nameMPCLINUX
JD of orbit computation2456966.844249
perihelion JD uncertainty (days)6.0667E-05
argument of perihelion uncertainty (°)3.3004E-05
ascending node uncertainty (°)3.1056E-05
inclination uncertainty (°)3.5404E-06
eccentricity uncertainty 4.9870E-08
perihelion distance uncertainty (AU)1.3104E-07
Minimum Orbit Intersection Distances (in AU)
for orbit epoch: 2460400.5, reference: E2024-GB3
Mercury1.59409
Venus1.22136
Earth0.94953
Mars0.53358
Jupiter2.31642
Saturn6.35239
Uranus15.349
Neptune27.4666

Observations

841 total observations over interval: 1990 09 15.18333 – 2024 01 18.456827
These data are available for download (format description).

Date (UT) J2000 RA J2000 Dec Magn Location Ref
1990 09 15.18333 00 48 15.49 -03 19 12.8 18.6   809 – European Southern Observatory, La Silla MPC 17916
1990 09 15.19653 00 48 14.80 -03 19 12.7   809 – European Southern Observatory, La Silla MPC 17916
1990 09 15.20972 00 48 14.11 -03 19 12.8   809 – European Southern Observatory, La Silla MPC 17916
1990 09 22.17153 00 42 27.14 -03 19 52.1 18.7   809 – European Southern Observatory, La Silla MPC 17375
1990 09 22.18472 00 42 26.36 -03 19 52.1   809 – European Southern Observatory, La Silla MPC 17375
1990 09 22.19792 00 42 25.59 -03 19 52.8   809 – European Southern Observatory, La Silla MPC 17375
1990 09 25.22153 00 39 39.36 -03 19 30.3 18.4   809 – European Southern Observatory, La Silla MPC 17375
1990 09 25.23472 00 39 38.54 -03 19 30.0   809 – European Southern Observatory, La Silla MPC 17375
1990 09 25.24792 00 39 37.78 -03 19 30.0   809 – European Southern Observatory, La Silla MPC 17375
1998 09 17.21212 22 42 52.24 -20 13 09.7 17.9 R 699 – Lowell Observatory-LONEOS MPS 2351
1998 09 17.23694 22 42 50.93 -20 13 06.8   699 – Lowell Observatory-LONEOS MPS 2351
1998 09 17.26176 22 42 49.62 -20 13 03.8   699 – Lowell Observatory-LONEOS MPS 2351
1998 09 22.23018 22 38 53.07 -19 59 45.6 18.0 R 699 – Lowell Observatory-LONEOS MPS 2351
1998 09 22.25500 22 38 51.85 -19 59 40.5   699 – Lowell Observatory-LONEOS MPS 2351
1998 09 22.27980 22 38 50.69 -19 59 35.3   699 – Lowell Observatory-LONEOS MPS 2351
2002 08 13.30500 22 17 18.30 -25 46 52.7 18.2   704 – Lincoln Laboratory ETS, New Mexico MPS 59514
2002 08 13.32073 22 17 17.39 -25 46 56.7 18.5   704 – Lincoln Laboratory ETS, New Mexico MPS 59514
2002 08 13.33656 22 17 16.50 -25 47 00.0 18.0   704 – Lincoln Laboratory ETS, New Mexico MPS 59514
2002 08 13.35226 22 17 15.65 -25 47 04.5 18.1   704 – Lincoln Laboratory ETS, New Mexico MPS 59514
2002 08 13.36794 22 17 14.74 -25 47 07.8 18.1   704 – Lincoln Laboratory ETS, New Mexico MPS 59514
2002 08 13.43590 22 17 11.00 -25 47 23.3 18.0   644 – Palomar Mountain/NEAT MPS 59514
2002 08 13.44630 22 17 10.42 -25 47 25.6 17.9   644 – Palomar Mountain/NEAT MPS 59514
2002 08 13.45671 22 17 09.83 -25 47 28.0 17.9   644 – Palomar Mountain/NEAT MPS 59514
2002 08 20.25872 22 10 47.16 -26 10 23.0 17.8   644 – Palomar Mountain/NEAT MPS 60677
2002 08 20.27960 22 10 45.89 -26 10 26.7 17.7   644 – Palomar Mountain/NEAT MPS 60677
2002 08 20.30152 22 10 44.54 -26 10 30.1 17.5   644 – Palomar Mountain/NEAT MPS 60677
2002 08 31.20621 22 00 05.00 -26 25 59.4 18.6   704 – Lincoln Laboratory ETS, New Mexico MPS 60677
2002 08 31.21135 22 00 04.81 -26 25 59.5 17.8   644 – Palomar Mountain/NEAT MPS 60677
2002 08 31.22003 22 00 04.27 -26 26 00.1 19.0   704 – Lincoln Laboratory ETS, New Mexico MPS 60677
2002 08 31.23307 22 00 03.53 -26 25 59.8 19.8   644 – Palomar Mountain/NEAT MPS 60677
2002 08 31.23378 22 00 03.43 -26 26 01.4 19.0   704 – Lincoln Laboratory ETS, New Mexico MPS 60677
2002 08 31.24750 22 00 02.61 -26 26 00.8 18.8   704 – Lincoln Laboratory ETS, New Mexico MPS 60677
2002 08 31.25427 22 00 02.24 -26 25 59.9 18.9   644 – Palomar Mountain/NEAT MPS 60677
2002 10 04.11682 21 42 34.09 -23 59 07.1 19.3   704 – Lincoln Laboratory ETS, New Mexico MPS 62470
2002 10 04.13179 21 42 34.16 -23 58 59.3 19.4   704 – Lincoln Laboratory ETS, New Mexico MPS 62470
2002 10 04.14691 21 42 34.15 -23 58 51.7 19.3   704 – Lincoln Laboratory ETS, New Mexico MPS 62470
2004 01 20.28382 09 47 56.89 +25 45 49.5 19.6   704 – Lincoln Laboratory ETS, New Mexico MPS 96826
2004 01 20.32235 09 47 54.79 +25 46 02.3 19.9   704 – Lincoln Laboratory ETS, New Mexico MPS 96826
2004 01 20.33529 09 47 54.10 +25 46 07.2 19.4   704 – Lincoln Laboratory ETS, New Mexico MPS 96826
2004 01 28.22287 09 40 20.55 +26 27 55.6 19.2 V 703 – Catalina Sky Survey MPS 97525
2004 01 28.23206 09 40 19.99 +26 27 56.0 19.3 V 703 – Catalina Sky Survey MPS 97525
2004 01 28.24121 09 40 19.35 +26 28 00.0 19.4 V 703 – Catalina Sky Survey MPS 97525
2004 01 28.25043 09 40 18.80 +26 28 02.0 19.6 V 703 – Catalina Sky Survey MPS 97525
2004 01 31.35573 09 37 05.72 +26 43 05.1 19.5   704 – Lincoln Laboratory ETS, New Mexico MPS 97525
2004 01 31.36833 09 37 04.84 +26 43 08.2 19.6   704 – Lincoln Laboratory ETS, New Mexico MPS 97525
2004 01 31.38214 09 37 03.92 +26 43 11.7 19.7   704 – Lincoln Laboratory ETS, New Mexico MPS 97525
2004 01 31.39472 09 37 03.16 +26 43 15.5 19.8   704 – Lincoln Laboratory ETS, New Mexico MPS 97525
2004 02 14.28068 09 22 11.17 +27 34 38.0 16.7 V 703 – Catalina Sky Survey MPS 98531
2004 02 14.29337 09 22 10.40 +27 34 40.4 19.7 V 703 – Catalina Sky Survey MPS 98531
2004 02 14.30602 09 22 09.54 +27 34 41.6 20.4 V 703 – Catalina Sky Survey MPS 98531
2004 02 14.31876 09 22 08.64 +27 34 41.7 20.4 V 703 – Catalina Sky Survey MPS 98531
2004 02 15.28092 09 21 08.36 +27 37 08.0 19.8   704 – Lincoln Laboratory ETS, New Mexico MPS 98531
2004 02 15.29257 09 21 07.56 +27 37 09.7 19.6   704 – Lincoln Laboratory ETS, New Mexico MPS 98531
2004 02 15.30417 09 21 06.81 +27 37 12.1 20.1   704 – Lincoln Laboratory ETS, New Mexico MPS 98531
2004 02 15.31588 09 21 06.03 +27 37 14.4 20.4   704 – Lincoln Laboratory ETS, New Mexico MPS 98531
2005 03 10.42564 14 15 10.79 -12 04 41.8 20.1 R G96 – Mt. Lemmon Survey MPS 127695
2005 03 10.43332 14 15 10.61 -12 04 42.0 20.1 R G96 – Mt. Lemmon Survey MPS 127695
2005 03 10.44096 14 15 10.44 -12 04 41.7 20.1 R G96 – Mt. Lemmon Survey MPS 127695
2005 03 10.44863 14 15 10.23 -12 04 41.3 19.7 R G96 – Mt. Lemmon Survey MPS 127695
2005 04 02.40925 14 01 12.06 -11 29 29.2 19.0 R G96 – Mt. Lemmon Survey MPS 130125
2005 04 02.41456 14 01 11.88 -11 29 28.9 19.4 R G96 – Mt. Lemmon Survey MPS 130125
2005 04 02.41986 14 01 11.59 -11 29 28.1 19.5 R G96 – Mt. Lemmon Survey MPS 130125
2005 04 02.42515 14 01 11.31 -11 29 26.6 17.8 R G96 – Mt. Lemmon Survey MPS 130125
2005 04 10.33283 13 54 20.12 -11 07 44.1 20.0 V 691 – Steward Observatory, Kitt Peak-Spacewatch MPS 131473
2005 04 10.33973 13 54 19.74 -11 07 43.1 19.8 V 691 – Steward Observatory, Kitt Peak-Spacewatch MPS 131473
2005 04 10.34507 13 54 19.43 -11 07 42.2 19.9 V 691 – Steward Observatory, Kitt Peak-Spacewatch MPS 131473
2005 05 08.29160 13 29 03.40 -09 42 33.0 19.2 R G96 – Mt. Lemmon Survey MPS 133807
2005 05 08.30185 13 29 02.90 -09 42 31.5 19.2 R G96 – Mt. Lemmon Survey MPS 133807
2005 05 08.31186 13 29 02.42 -09 42 29.7 19.3 R G96 – Mt. Lemmon Survey MPS 133807
2005 05 08.32187 13 29 01.91 -09 42 28.3 19.3 R G96 – Mt. Lemmon Survey MPS 133807
2006 07 18.58790 21 34 59.88 -29 27 12.4 18.7 V E12 – Siding Spring Survey MPS 175047
2006 07 18.59947 21 34 59.41 -29 27 16.7 18.4 V E12 – Siding Spring Survey MPS 175047
2006 07 18.61141 21 34 58.90 -29 27 21.2 18.6 V E12 – Siding Spring Survey MPS 175047
2006 07 18.62378 21 34 58.40 -29 27 25.6 18.4 V E12 – Siding Spring Survey MPS 175047
2006 07 31.56252 21 24 36.72 -30 37 45.2 18.1 V E12 – Siding Spring Survey MPS 175497
2006 07 31.57794 21 24 35.78 -30 37 49.6 18.0 V E12 – Siding Spring Survey MPS 175497
2006 07 31.59221 21 24 34.92 -30 37 53.5 17.8 V E12 – Siding Spring Survey MPS 175497
2006 07 31.60647 21 24 34.09 -30 37 57.6 17.9 V E12 – Siding Spring Survey MPS 175497
2006 07 31.66367 21 24 30.63 -30 38 14.3 18.3 V E12 – Siding Spring Survey MPS 175497
2006 07 31.66645 21 24 30.49 -30 38 14.6 18.3 V E12 – Siding Spring Survey MPS 175497
2006 07 31.66921 21 24 30.31 -30 38 15.8 18.2 V E12 – Siding Spring Survey MPS 175497
2006 07 31.67198 21 24 30.16 -30 38 16.2 18.2 V E12 – Siding Spring Survey MPS 175497
2006 07 31.67762 21 24 29.84 -30 38 17.8 18.1 V E12 – Siding Spring Survey MPS 175497
2006 07 31.69218 21 24 28.94 -30 38 21.6 18.0 V E12 – Siding Spring Survey MPS 175497
2006 07 31.70672 21 24 28.08 -30 38 25.7 18.0 V E12 – Siding Spring Survey MPS 175497
2006 07 31.72125 21 24 27.21 -30 38 29.6 18.0 V E12 – Siding Spring Survey MPS 175497
2006 07 31.73781 21 24 26.20 -30 38 34.5 17.9 V E12 – Siding Spring Survey MPS 175497
2006 07 31.75309 21 24 25.34 -30 38 38.3 17.9 V E12 – Siding Spring Survey MPS 175497
2006 07 31.76837 21 24 24.40 -30 38 42.9 17.9 V E12 – Siding Spring Survey MPS 175497
2006 07 31.78369 21 24 23.50 -30 38 46.2 18.2 V E12 – Siding Spring Survey MPS 175497
